Date String (YYYY-MM-DD hh:mm:ss) UTC,Instrument flags,absolute air pressure of the measurement (hPa),sample flow rate (lpm),inlet stack bypass flow (lpm),air temperature of the measurement (°C),ambient temperature measured by the external sensor (°C),aerosol sample conditioner tube jacket temperature (°C),OPC LED temperature (°C),internal box temperature (°C),relative humidity of the measurement (%),span deviation,mass concentration of particles derived from Lorenz-Mie calculation of OPC scattering (μg/m³),mass concentration of particles derived from Lorenz-Mie calculation of OPC scattering (μg/m³),mass concentration of particles derived from Lorenz-Mie calculation of OPC scattering (μg/m³)
DateTimeUTC,F1_M11,P_M11,Q1_M11,Q2_M11,T1_M11,T2_M11,T3_M11,T4_M11,T5_M11,U1_M11,ZSPAN_M11,X0_M11,X2_M11,X1_M11
2023-10-28 07:00:00,SystemResetWarning,0830.2,5.00,000.00,022.6,021.1,000.0,030.9,024.2,11.6,0000.0,0010.47,0005.73,0004.89
2023-10-28 07:01:00,SystemResetWarning,0830.2,5.00,000.00,022.6,021.1,000.0,030.9,024.2,11.6,0000.0,0009.92,0005.72,0004.88
2023-10-28 07:02:00,SystemResetWarning,0830.2,5.00,000.00,022.6,021.1,000.0,030.9,024.1,11.5,0000.0,0009.81,0005.66,0004.85
2023-10-28 07:03:00,SystemResetWarning,0830.2,4.99,000.00,022.6,021.1,000.0,030.9,024.2,11.5,0000.0,0010.30,0005.62,0004.82
2023-10-28 07:04:00,SystemResetWarning,0830.3,4.99,000.00,022.6,021.1,000.0,030.9,024.1,11.5,0000.0,0010.87,0005.60,0004.79
2023-10-28 07:05:00,SystemResetWarning,0830.3,5.01,000.00,022.6,021.1,000.0,030.9,024.1,11.5,0000.0,0011.24,0005.58,0004.75
2023-10-28 07:06:00,SystemResetWarning,0830.2,5.02,000.00,022.6,021.1,000.0,030.9,024.1,11.5,0000.0,0012.41,0005.60,0004.72
2023-10-28 07:07:00,SystemResetWarning,0830.2,5.00,000.00,022.6,021.1,000.0,030.9,024.1,11.5,0000.0,0012.86,0005.60,0004.69
2023-10-28 07:08:00,SystemResetWarning,0830.2,5.00,000.00,022.6,021.1,000.0,030.9,024.1,11.5,0000.0,0013.08,0005.52,0004.66
2023-10-28 07:09:00,SystemResetWarning,0830.2,5.00,000.00,022.6,021.1,000.0,030.9,024.1,11.4,0000.0,0014.33,0005.50,0004.64
2023-10-28 07:10:00,SystemResetWarning,0830.2,5.00,000.00,022.6,021.1,000.0,030.9,024.1,11.4,0000.0,0015.17,0005.51,0004.62
2023-10-28 07:11:00,SystemResetWarning,0830.2,5.00,000.00,022.6,021.0,000.0,030.9,024.1,11.4,0000.0,0015.46,0005.52,0004.60
2023-10-28 07:12:00,SystemResetWarning,0830.2,5.00,000.00,022.5,021.0,000.0,030.9,024.1,11.4,0000.0,0016.21,0005.50,0004.56
2023-10-28 07:13:00,SystemResetWarning,0830.2,5.00,000.00,022.5,021.0,000.0,030.9,024.1,11.4,0000.0,0016.40,0005.46,0004.53
2023-10-28 07:14:00,SystemResetWarning,0830.2,5.00,000.00,022.5,021.0,000.0,030.9,024.0,11.5,0000.0,0017.32,0005.44,0004.49
2023-10-28 07:15:00,SystemResetWarning,0830.2,5.00,000.00,022.5,021.0,000.0,030.9,024.0,11.5,0000.0,0016.58,0005.42,0004.46
2023-10-28 07:16:00,SystemResetWarning,0830.2,4.99,000.00,022.5,021.0,000.0,030.9,024.0,11.5,0000.0,0016.42,0005.38,0004.44
2023-10-28 07:17:00,SystemResetWarning,0830.2,5.01,000.00,022.5,020.9,000.0,030.9,024.0,11.5,0000.0,0015.80,0005.34,0004.44
2023-10-28 07:18:00,SystemResetWarning,0830.1,5.01,000.00,022.5,020.9,000.0,030.8,024.0,11.5,0000.0,0015.92,0005.27,0004.42
2023-10-28 07:19:00,SystemResetWarning,0830.1,5.00,000.00,022.5,020.9,000.0,030.8,024.0,11.5,-000.0,0016.38,0005.27,0004.42
2023-10-28 07:20:00,SystemResetWarning,0830.1,5.00,000.00,022.4,020.9,000.0,030.8,024.0,11.5,-000.2,0015.24,0005.24,0004.40
2023-10-28 07:21:00,SystemResetWarning,0830.1,5.00,000.00,022.4,020.9,000.0,030.8,024.0,11.4,-000.1,0014.01,0005.16,0004.38
2023-10-28 07:22:00,SystemResetWarning,0830.1,5.00,000.00,022.4,020.9,000.0,030.8,024.0,11.4,0000.0,0013.75,0005.10,0004.36
2023-10-28 07:23:00,SystemResetWarning,0830.1,5.00,000.00,022.4,020.9,000.0,030.8,023.9,11.5,0000.0,0013.56,0005.10,0004.35
2023-10-28 07:24:00,SystemResetWarning,0830.1,4.99,000.00,022.4,020.9,000.0,030.8,023.9,11.5,0000.0,0013.55,0005.06,0004.34
2023-10-28 07:25:00,SystemResetWarning,0830.1,5.00,000.00,022.4,020.8,000.0,030.8,023.9,11.6,0000.0,0013.64,0005.05,0004.35
2023-10-28 07:26:00,SystemResetWarning,0830.1,5.01,000.00,022.4,020.8,000.0,030.8,023.9,11.6,0000.0,0014.11,0005.05,0004.36
2023-10-28 07:27:00,SystemResetWarning,0830.1,5.00,000.00,022.3,020.8,000.0,030.8,023.9,11.7,0000.0,0014.11,0005.05,0004.35
2023-10-28 07:28:00,SystemResetWarning,0830.0,5.00,000.00,022.3,020.8,000.0,030.8,023.8,11.7,0000.0,0013.58,0005.03,0004.33
2023-10-28 07:29:00,SystemResetWarning,0830.1,4.99,000.00,022.3,020.8,000.0,030.8,023.8,11.7,0000.0,0013.22,0005.05,0004.33
2023-10-28 07:30:00,SystemResetWarning,0830.1,5.00,000.00,022.3,020.7,000.0,030.7,023.8,11.8,0000.0,0012.85,0005.05,0004.31
2023-10-28 07:31:00,SystemResetWarning,0830.2,5.00,000.00,022.3,020.7,000.0,030.7,023.8,11.9,0000.5,0014.75,0005.05,0004.30
2023-10-28 07:32:00,SystemResetWarning,0830.1,4.99,000.00,022.3,020.7,000.0,030.7,023.8,11.9,0000.2,0015.06,0005.03,0004.28
2023-10-28 07:33:00,SystemResetWarning,0830.1,5.01,000.00,022.3,020.7,000.0,030.7,023.8,12.0,0000.0,0015.83,0005.01,0004.27
2023-10-28 07:34:00,SystemResetWarning,0830.0,5.01,000.00,022.2,020.7,000.0,030.7,023.7,12.0,0000.0,0015.51,0004.99,0004.27
2023-10-28 07:35:00,SystemResetWarning,0830.0,5.00,000.00,022.2,020.7,000.0,030.7,023.7,12.1,0000.0,0015.42,0005.00,0004.26
2023-10-28 07:36:00,SystemResetWarning,0830.0,5.00,000.00,022.2,020.7,000.0,030.7,023.7,12.1,0000.0,0015.00,0005.01,0004.25
2023-10-28 07:37:00,SystemResetWarning,0830.0,4.99,000.00,022.2,020.6,000.0,030.7,023.7,12.2,0000.0,0014.02,0004.98,0004.23
2023-10-28 07:38:00,SystemResetWarning,0830.0,4.99,000.00,022.2,020.6,000.0,030.7,023.7,12.2,0000.0,0014.19,0004.98,0004.23
2023-10-28 07:39:00,SystemResetWarning,0830.0,5.00,000.00,022.2,020.6,000.0,030.6,023.7,12.1,0000.0,0014.95,0004.99,0004.22
2023-10-28 07:40:00,SystemResetWarning,0830.0,5.00,000.00,022.2,020.5,000.0,030.6,023.7,12.1,0000.0,0014.85,0004.95,0004.21
2023-10-28 07:41:00,SystemResetWarning,0830.0,5.00,000.00,022.2,020.5,000.0,030.6,023.7,12.2,0000.0,0014.53,0004.93,0004.21
2023-10-28 07:42:00,SystemResetWarning,0830.1,5.00,000.00,022.1,020.5,000.0,030.6,023.6,12.2,0000.0,0012.89,0004.92,0004.20
2023-10-28 07:43:00,SystemResetWarning,0830.1,5.01,000.00,022.1,020.5,000.0,030.6,023.6,12.2,0000.0,0012.21,0004.92,0004.20
2023-10-28 07:44:00,SystemResetWarning,0830.0,5.00,000.00,022.1,020.5,000.0,030.6,023.6,12.3,0000.0,0011.49,0004.92,0004.20
2023-10-28 07:45:00,SystemResetWarning,0830.0,5.00,000.00,022.1,020.5,000.0,030.6,023.6,12.4,0000.0,0012.01,0004.89,0004.17
2023-10-28 07:46:00,SystemResetWarning,0830.0,5.00,000.00,022.1,020.5,000.0,030.6,023.6,12.4,0000.0,0012.48,0004.85,0004.14
2023-10-28 07:47:00,SystemResetWarning,0830.1,4.99,000.00,022.1,020.5,000.0,030.5,023.6,12.4,0000.0,0011.84,0004.85,0004.13
2023-10-28 07:48:00,SystemResetWarning,0830.1,4.99,000.00,022.1,020.5,000.0,030.5,023.6,12.3,0000.0,0012.25,0004.84,0004.11
2023-10-28 07:49:00,SystemResetWarning,0830.1,5.00,000.00,022.1,020.4,000.0,030.5,023.6,12.3,0000.0,0012.41,0004.80,0004.10
2023-10-28 07:50:00,SystemResetWarning,0830.1,4.99,000.00,022.1,020.4,000.0,030.5,023.5,12.2,0000.0,0012.18,0004.79,0004.11
2023-10-28 07:51:00,SystemResetWarning,0830.1,5.00,000.00,022.1,020.4,000.0,030.5,023.5,12.3,0000.0,0012.57,0004.78,0004.12
2023-10-28 07:52:00,SystemResetWarning,0830.1,5.01,000.00,022.0,020.4,000.0,030.5,023.5,12.2,0000.0,0012.89,0004.79,0004.11
2023-10-28 07:53:00,SystemResetWarning,0830.1,5.01,000.00,022.0,020.4,000.0,030.5,023.5,12.2,0000.0,0012.51,0004.78,0004.10
2023-10-28 07:54:00,SystemResetWarning,0830.1,5.00,000.00,022.0,020.4,000.0,030.5,023.5,12.1,0000.0,0012.48,0004.77,0004.10
2023-10-28 07:55:00,SystemResetWarning,0830.1,4.99,000.00,022.0,020.4,000.0,030.4,023.5,12.1,0000.0,0012.33,0004.78,0004.10
2023-10-28 07:56:00,SystemResetWarning,0830.1,5.00,000.00,022.0,020.4,000.0,030.4,023.5,12.1,0000.0,0011.90,0004.77,0004.11
2023-10-28 07:57:00,SystemResetWarning,0830.1,5.00,000.00,022.0,020.4,000.0,030.4,023.5,12.1,0000.0,0010.89,0004.77,0004.12
2023-10-28 07:58:00,SystemResetWarning,0830.0,5.00,000.00,022.0,020.4,000.0,030.4,023.5,12.1,0000.0,0010.86,0004.74,0004.11
2023-10-28 07:59:00,SystemResetWarning,0829.9,5.00,000.00,022.0,020.4,000.0,030.4,023.5,12.1,0000.0,0010.86,0004.76,0004.11
